Total_Precipitation_Accumulation
0.67 0.57 0.66 0.65 0.53 0.61 0.89 0.81 0.73 0.53 0.50 0.56 0.55 0.57 0.56 0.51 0.45 0.40 0.37 0.36 0.34 0.35 0.36 0.38 0.39 0.45 0.57 0.68 0.76 0.89 1.01 1.03 1.02 0.98 0.95 0.95 0.95 0.93 0.92 0.96 1.02 1.07 1.04 0.97
0.70 0.42 0.45 0.48 0.39 0.45 0.55 0.50 0.48 0.41 0.47 0.44 0.42 0.45 0.47 0.42 0.37 0.33 0.33 0.32 0.28 0.27 0.27 0.30 0.33 0.35 0.44 0.58 0.68 0.78 0.90 0.96 0.97 0.95 0.91 0.90 0.88 0.86 0.84 0.86 0.93 1.01 1.04 1.02
0.81 0.41 0.48 0.54 0.43 0.44 0.51 0.46 0.44 0.52 0.49 0.34 0.34 0.41 0.50 0.45 0.35 0.32 0.31 0.30 0.28 0.27 0.26 0.26 0.28 0.35 0.43 0.53 0.58 0.64 0.71 0.80 0.84 0.84 0.85 0.86 0.86 0.88 0.93 0.96 0.98 1.05 1.12 1.14
0.88 0.66 0.79 0.57 0.35 0.35 0.43 0.45 0.41 0.43 0.36 0.32 0.37 0.38 0.41 0.43 0.39 0.33 0.27 0.25 0.25 0.27 0.25 0.24 0.26 0.31 0.41 0.53 0.60 0.67 0.73 0.76 0.76 0.79 0.84 0.88 0.95 1.02 1.10 1.17 1.19 1.24 1.30 1.32
0.86 0.67 0.46 0.29 0.22 0.31 0.41 0.46 0.36 0.33 0.27 0.23 0.26 0.33 0.34 0.32 0.33 0.34 0.29 0.27 0.27 0.27 0.29 0.29 0.31 0.33 0.39 0.51 0.60 0.66 0.74 0.80 0.82 0.88 0.98 1.02 1.12 1.20 1.23 1.30 1.30 1.27 1.26 1.25
0.86 0.71 0.41 0.29 0.14 0.15 0.30 0.49 0.27 0.23 0.24 0.21 0.22 0.34 0.35 0.32 0.36 0.37 0.33 0.30 0.29 0.28 0.28 0.33 0.37 0.40 0.48 0.60 0.70 0.77 0.83 0.92 0.93 0.96 1.03 1.06 1.08 1.08 1.08 1.08 1.06 1.02 0.99 0.97
0.70 0.66 0.37 0.24 0.09 0.10 0.38 0.49 0.26 0.24 0.26 0.25 0.31 0.38 0.34 0.31 0.34 0.37 0.39 0.39 0.39 0.39 0.42 0.47 0.53 0.59 0.69 0.79 0.91 0.96 0.97 1.01 0.99 0.94 0.96 0.94 0.88 0.82 0.79 0.76 0.72 0.70 0.69 0.68
0.48 0.69 0.49 0.23 0.16 0.32 0.45 0.28 0.23 0.22 0.24 0.26 0.25 0.23 0.23 0.24 0.28 0.31 0.34 0.37 0.43 0.48 0.51 0.53 0.63 0.73 0.83 0.92 0.97 0.93 0.87 0.84 0.78 0.69 0.65 0.63 0.62 0.60 0.59 0.59 0.60 0.59 0.57 0.56
0.47 0.54 0.43 0.31 0.32 0.33 0.28 0.25 0.22 0.24 0.22 0.23 0.24 0.24 0.23 0.23 0.24 0.26 0.27 0.28 0.32 0.39 0.44 0.44 0.50 0.57 0.63 0.65 0.63 0.61 0.59 0.57 0.54 0.50 0.48 0.49 0.50 0.52 0.53 0.53 0.56 0.55 0.55 0.56
0.39 0.39 0.30 0.26 0.22 0.20 0.20 0.22 0.21 0.21 0.20 0.19 0.23 0.22 0.21 0.21 0.22 0.23 0.24 0.24 0.26 0.28 0.32 0.33 0.35 0.38 0.40 0.40 0.42 0.44 0.47 0.48 0.48 0.48 0.46 0.46 0.48 0.49 0.53 0.55 0.56 0.56 0.56 0.57
0.36 0.29 0.24 0.21 0.18 0.19 0.17 0.15 0.15 0.15 0.15 0.17 0.19 0.18 0.19 0.20 0.21 0.22 0.22 0.23 0.25 0.31 0.34 0.38 0.36 0.37 0.38 0.40 0.43 0.46 0.48 0.51 0.53 0.53 0.50 0.49 0.49 0.51 0.55 0.59 0.65 0.69 0.66 0.63
0.42 0.31 0.31 0.27 0.19 0.17 0.16 0.16 0.17 0.18 0.18 0.17 0.19 0.22 0.22 0.23 0.24 0.24 0.24 0.24 0.25 0.28 0.34 0.38 0.38 0.37 0.38 0.41 0.45 0.48 0.48 0.49 0.52 0.55 0.54 0.52 0.49 0.49 0.54 0.58 0.61 0.63 0.64 0.64
0.32 0.22 0.21 0.19 0.15 0.14 0.17 0.19 0.20 0.21 0.22 0.22 0.22 0.24 0.26 0.27 0.27 0.26 0.26 0.26 0.30 0.32 0.34 0.37 0.38 0.39 0.42 0.43 0.45 0.48 0.50 0.51 0.52 0.54 0.56 0.57 0.53 0.51 0.54 0.57 0.60 0.60 0.60 0.61
0.17 0.16 0.18 0.16 0.18 0.17 0.18 0.20 0.20 0.20 0.21 0.23 0.24 0.24 0.25 0.26 0.25 0.26 0.30 0.33 0.34 0.33 0.33 0.34 0.34 0.37 0.42 0.43 0.44 0.46 0.48 0.52 0.53 0.53 0.57 0.61 0.61 0.58 0.55 0.54 0.55 0.54 0.56 0.63
0.16 0.19 0.23 0.21 0.18 0.17 0.17 0.16 0.16 0.16 0.17 0.18 0.21 0.24 0.25 0.26 0.28 0.30 0.32 0.32 0.30 0.29 0.30 0.30 0.31 0.35 0.38 0.41 0.42 0.44 0.47 0.51 0.53 0.54 0.57 0.62 0.65 0.66 0.62 0.58 0.57 0.56 0.55 0.60
0.20 0.18 0.18 0.19 0.20 0.18 0.17 0.17 0.19 0.20 0.20 0.21 0.23 0.25 0.28 0.29 0.29 0.30 0.31 0.31 0.31 0.33 0.33 0.32 0.34 0.36 0.37 0.39 0.41 0.43 0.48 0.58 0.62 0.62 0.62 0.63 0.64 0.65 0.65 0.61 0.59 0.58 0.57 0.61
0.30 0.27 0.24 0.24 0.24 0.23 0.24 0.26 0.27 0.27 0.26 0.25 0.26 0.27 0.26 0.25 0.25 0.26 0.29 0.30 0.32 0.34 0.34 0.35 0.37 0.35 0.35 0.37 0.41 0.45 0.48 0.54 0.61 0.59 0.58 0.60 0.63 0.66 0.67 0.67 0.63 0.59 0.58 0.64
0.36 0.37 0.34 0.34 0.33 0.31 0.29 0.28 0.28 0.28 0.28 0.28 0.27 0.26 0.26 0.27 0.29 0.30 0.31 0.30 0.28 0.29 0.33 0.37 0.37 0.33 0.32 0.35 0.40 0.44 0.46 0.48 0.52 0.54 0.56 0.62 0.68 0.67 0.67 0.68 0.65 0.62 0.59 0.62
0.31 0.33 0.34 0.34 0.34 0.34 0.34 0.34 0.34 0.33 0.32 0.30 0.29 0.30 0.31 0.32 0.34 0.35 0.32 0.30 0.30 0.32 0.35 0.35 0.37 0.34 0.34 0.38 0.42 0.44 0.46 0.47 0.49 0.50 0.54 0.61 0.64 0.62 0.62 0.64 0.65 0.64 0.62 0.62
0.32 0.33 0.34 0.35 0.33 0.33 0.35 0.35 0.33 0.32 0.32 0.31 0.32 0.32 0.32 0.34 0.34 0.33 0.30 0.31 0.36 0.39 0.36 0.35 0.33 0.33 0.35 0.38 0.43 0.44 0.45 0.48 0.50 0.51 0.54 0.58 0.60 0.60 0.59 0.60 0.61 0.62 0.62 0.62
0.36 0.35 0.34 0.35 0.36 0.34 0.34 0.34 0.33 0.34 0.35 0.33 0.34 0.35 0.36 0.35 0.33 0.30 0.28 0.30 0.32 0.31 0.30 0.30 0.30 0.30 0.35 0.43 0.47 0.45 0.45 0.48 0.52 0.55 0.58 0.59 0.59 0.58 0.56 0.56 0.57 0.58 0.59 0.60
0.34 0.34 0.35 0.35 0.33 0.33 0.34 0.33 0.34 0.35 0.35 0.36 0.36 0.35 0.34 0.33 0.31 0.28 0.28 0.32 0.32 0.32 0.31 0.30 0.31 0.36 0.46 0.53 0.50 0.47 0.49 0.51 0.54 0.57 0.59 0.60 0.60 0.58 0.54 0.55 0.56 0.55 0.55 0.56
0.29 0.31 0.33 0.34 0.34 0.34 0.32 0.33 0.33 0.33 0.34 0.35 0.37 0.38 0.36 0.34 0.32 0.32 0.34 0.31 0.30 0.32 0.33 0.34 0.39 0.46 0.52 0.51 0.46 0.47 0.50 0.52 0.53 0.54 0.56 0.56 0.56 0.55 0.55 0.54 0.52 0.52 0.52 0.52
0.21 0.22 0.24 0.25 0.23 0.22 0.24 0.26 0.27 0.27 0.29 0.31 0.32 0.33 0.33 0.32 0.29 0.29 0.33 0.33 0.33 0.34 0.33 0.36 0.42 0.47 0.49 0.44 0.42 0.44 0.46 0.47 0.48 0.49 0.50 0.50 0.49 0.50 0.50 0.50 0.50 0.48 0.48 0.48
0.15 0.15 0.14 0.14 0.15 0.18 0.20 0.20 0.20 0.21 0.22 0.25 0.26 0.26 0.26 0.28 0.31 0.31 0.30 0.30 0.31 0.32 0.32 0.33 0.36 0.38 0.38 0.37 0.39 0.40 0.42 0.44 0.48 0.50 0.48 0.47 0.47 0.46 0.45 0.44 0.46 0.45 0.45 0.45
0.11 0.11 0.11 0.12 0.13 0.15 0.15 0.16 0.18 0.19 0.20 0.21 0.23 0.24 0.25 0.26 0.28 0.29 0.30 0.29 0.29 0.30 0.31 0.32 0.32 0.33 0.33 0.34 0.35 0.35 0.37 0.38 0.40 0.41 0.41 0.43 0.44 0.44 0.44 0.43 0.41 0.42 0.42 0.42
0.10 0.10 0.09 0.09 0.10 0.12 0.13 0.14 0.16 0.18 0.19 0.22 0.25 0.24 0.25 0.26 0.27 0.28 0.27 0.27 0.27 0.28 0.29 0.30 0.30 0.31 0.32 0.32 0.32 0.32 0.33 0.34 0.36 0.37 0.38 0.40 0.41 0.42 0.42 0.42 0.42 0.41 0.42 0.41